Lid_Strength_Index
14 17 19 16 15 14 14 15 16 15 13 14 14 14 14 13 13 12 12 13 11 11 9 10 10 9 8 8 7 6 4 3 2 4 7 9 9 10 10 9 9 9 9 10
15 18 15 14 14 14 15 16 16 14 13 13 13 13 13 13 13 12 12 14 12 11 10 9 8 8 8 7 7 6 4 3 3 5 6 7 8 10 10 10 10 9 9 10
17 15 13 14 14 15 15 16 16 16 14 12 13 14 14 13 14 13 13 13 12 11 10 10 10 8 8 9 8 6 5 4 3 4 6 9 11 11 11 11 10 10 10 10
17 14 15 16 15 13 15 12 13 13 14 17 14 18 15 13 13 13 13 13 12 11 10 10 10 11 10 9 8 6 5 5 4 5 8 9 10 11 10 10 10 10 10 10
20 20 19 17 13 13 13 12 13 14 16 15 15 16 16 13 14 13 12 12 13 14 14 14 13 12 12 12 9 7 5 4 5 5 6 7 9 9 9 9 10 10 10 10
19 15 15 14 15 14 11 11 13 13 15 18 16 16 17 16 14 12 10 9 14 15 15 14 14 13 13 12 11 10 7 5 5 6 7 7 8 9 10 10 10 10 10 10
20 17 13 11 16 14 15 17 19 20 20 20 15 17 15 13 12 11 11 14 14 14 15 15 15 14 13 13 12 9 9 8 6 7 8 8 8 8 10 10 10 10 10 10
24 26 15 13 14 16 16 17 18 23 21 19 16 18 16 11 10 9 13 13 13 14 14 15 15 15 14 13 13 12 10 9 8 8 8 9 9 9 9 9 10 10 10 9
22 22 15 13 13 13 18 19 16 18 17 19 17 14 11 12 13 13 13 14 14 14 14 15 15 14 14 14 14 13 12 10 9 9 8 9 10 9 10 9 9 10 9 9
18 23 16 13 12 12 14 14 19 16 22 23 18 18 16 14 15 15 15 15 15 15 15 15 16 15 15 14 14 14 13 12 11 9 8 9 9 10 10 10 10 10 10 9
18 20 18 14 17 18 17 19 18 19 17 20 21 18 13 14 14 16 16 15 16 17 17 18 17 16 16 15 15 15 14 13 13 11 9 9 9 9 10 9 10 10 10 9
17 19 20 18 15 13 15 18 18 22 24 21 19 18 12 13 14 15 16 17 17 17 18 19 19 19 18 17 16 16 16 15 14 12 10 9 9 9 10 10 10 10 10 10
17 18 25 22 18 15 18 16 16 17 18 22 22 20 13 12 14 15 17 18 18 18 19 19 20 21 20 19 19 18 17 17 15 15 14 12 12 11 10 10 9 10 10 10
14 26 25 24 21 17 20 18 16 18 22 20 20 19 16 15 17 17 17 18 18 19 19 20 21 21 21 20 20 20 19 18 17 16 16 16 14 13 12 10 10 9 10 10
17 26 26 18 17 16 18 19 17 18 17 20 19 18 17 17 18 18 18 18 19 19 19 20 21 22 22 21 21 21 21 20 19 19 18 18 16 15 14 13 12 10 10 10
19 24 21 25 16 16 18 18 16 15 15 15 15 17 15 15 16 18 18 18 19 20 20 19 20 20 21 21 21 21 22 21 20 20 20 19 17 16 16 14 14 12 11 11
21 26 26 28 18 18 27 15 16 15 13 15 18 16 14 16 17 18 18 18 19 18 18 19 19 20 21 21 20 21 21 21 21 21 21 20 19 17 17 15 14 14 14 13
23 27 28 29 28 34 21 13 12 14 12 12 14 14 14 14 15 16 16 17 18 18 18 18 18 19 20 20 20 20 21 22 22 22 21 21 20 19 17 16 15 14 14 14
18 25 29 28 36 22 18 15 18 19 18 11 13 13 13 13 14 16 15 15 17 17 17 17 17 17 19 20 20 20 21 22 23 23 22 22 21 20 19 19 17 15 14 14
16 19 24 35 33 31 23 16 13 14 23 13 12 14 14 14 18 17 14 14 15 16 16 17 17 17 18 19 20 20 22 23 24 24 23 22 21 20 20 20 18 17 15 14
31 33 27 28 31 26 19 14 14 26 22 13 12 12 13 15 16 16 12 14 14 15 16 16 17 18 19 19 20 21 22 24 24 23 22 22 21 21 20 20 19 18 17 15
26 32 31 34 36 30 16 15 18 17 16 12 12 12 12 13 13 13 14 14 15 16 16 17 18 18 19 20 20 22 23 24 24 24 24 23 22 21 20 20 20 19 19 18
24 21 25 23 24 19 15 13 12 14 12 13 13 11 12 13 14 14 14 14 16 16 16 16 18 18 21 21 20 22 22 24 25 26 26 25 23 22 22 21 21 20 19 20
20 19 21 21 20 16 15 13 13 12 11 11 12 13 13 14 13 13 13 14 15 15 16 16 17 18 19 19 19 21 22 24 25 26 26 25 25 25 23 22 21 21 20 20
17 20 21 19 16 15 14 15 12 12 11 12 13 13 14 14 14 13 14 14 14 15 16 17 18 19 19 19 20 21 21 23 25 25 26 25 25 25 25 23 23 21 19 18
16 18 20 20 16 17 15 13 13 13 13 13 14 14 14 14 15 15 16 15 15 16 16 17 18 19 19 20 20 21 22 23 25 25 25 25 25 26 25 25 24 21 19 18